Tracking 29042 objects as of 22-Jun-2024
HD Live streaming from Space Station
objects crossing your sky now

STARLINK-31759

Track STARLINK-31759 now!
10-day predictions
STARLINK-31759 is classified as:


NORAD ID: 59740
Int'l Code: 2024-090L
Perigee: 450.4 km
Apogee: 452.0 km
Inclination: 43.0 °
Period: 93.5 minutes
Semi major axis: 6822 km
RCS: Unknown
Launch date: May 13, 2024
Source: United States (US)
Launch site: AIR FORCE EASTERN TEST RANGE (AFETR)
Your satellite tracking list
Your tracking list is empty




NASA's NSSDC Master Catalog

Two Line Element Set (TLE):
1 59740U 24090L   24173.92763218  .00000597  00000-0  21553-4 0  9996
2 59740  43.0018 144.6636 0001201 271.6782  88.3937 15.40703438  7426
Source of the keplerian elements: AFSPC